Dewpoint
27 28 28 29 29 29 29 30 31 32 33 34 33 34 34 35 35 35 36 37 38 38 39 40 41 42 42 43 43 44 44 45 46 46 47 48 47 47 47 46 46 45 45 44 44 45 45 44 44 44 44 44 45 45 45 45 45 46 47 47 48 49 49 50 50 51 51 52 52 52 53 53 53 53 53 53 53 53 53 53 53 53 53 53 53 53 53 53 53 54 54 55 56 57 57 57 57 57 58 58 57 54 50
26 27 28 28 29 29 29 30 30 31 32 32 33 33 33 34 35 35 35 36 37 38 39 39 40 41 42 42 43 43 43 43 44 45 45 46 46 46 46 45 45 44 44 44 44 44 44 44 43 43 43 43 43 44 44 44 44 44 45 45 46 47 48 49 49 50 50 50 50 50 51 51 51 52 52 52 52 52 52 52 52 52 52 52 52 52 52 52 52 53 53 53 54 56 57 57 56 56 56 56 56 53 47
26 27 28 29 29 29 30 30 30 31 31 31 32 32 33 34 34 35 35 36 37 37 38 39 39 40 41 42 42 43 43 43 44 44 44 44 45 45 45 45 44 44 43 43 43 43 43 43 42 42 42 42 42 42 42 42 43 43 43 44 45 45 46 47 48 49 49 49 49 49 49 49 50 50 51 51 51 51 51 52 51 51 51 51 51 51 51 51 51 51 52 52 53 55 56 56 56 55 55 54 52 48 44
26 27 28 29 30 30 30 30 30 31 31 31 31 32 33 33 34 35 35 36 36 37 37 38 39 40 40 41 42 43 43 43 43 43 44 44 45 45 45 44 44 43 43 42 41 41 41 41 41 40 41 41 41 41 41 41 41 42 42 43 43 44 44 45 46 47 48 48 48 49 49 49 49 49 49 49 50 50 51 51 51 51 51 50 50 50 50 50 50 51 51 51 52 53 54 55 55 54 53 49 46 43 43
26 27 28 29 30 30 30 30 30 30 30 31 31 32 32 33 34 35 35 35 36 36 37 37 38 39 40 40 41 42 43 44 44 44 44 44 45 45 44 44 43 43 42 41 41 41 42 41 41 41 41 41 41 41 41 41 41 41 41 41 42 42 42 43 44 44 46 47 47 48 48 48 48 48 48 48 49 49 49 50 50 50 49 49 49 49 49 49 49 50 50 50 51 51 52 53 53 53 49 45 42 40 42
27 27 27 28 29 30 30 30 30 30 30 30 31 32 32 33 33 34 35 35 35 36 36 37 38 39 39 40 41 42 43 44 44 44 44 44 44 44 44 44 43 43 43 42 41 41 42 42 42 42 41 41 41 41 40 40 40 40 40 40 41 41 41 41 41 41 42 44 45 47 47 47 47 47 47 47 48 48 49 49 49 49 48 48 48 48 48 48 48 49 49 50 50 50 50 50 51 52 50 47 44 41 42
26 26 26 27 28 29 29 29 29 30 30 30 31 31 32 32 33 34 34 35 35 36 36 37 38 39 40 40 40 41 42 44 44 45 45 44 44 44 44 44 44 44 44 43 43 42 42 42 42 42 42 41 41 40 40 39 39 39 39 40 40 40 40 40 40 39 39 40 42 44 45 46 47 47 47 47 47 47 48 48 48 48 48 48 47 47 47 47 47 48 48 49 49 49 49 49 49 50 51 49 47 44 43
25 25 26 26 27 28 29 29 29 29 30 30 30 31 31 31 32 33 34 34 35 35 36 36 37 38 39 39 40 40 41 42 43 45 45 44 44 44 44 44 44 44 44 44 44 44 44 43 43 42 41 41 40 40 40 39 39 38 39 39 39 39 38 39 39 39 39 39 39 40 40 41 41 42 43 43 44 44 45 46 47 47 47 47 47 46 46 46 47 47 47 48 49 49 49 49 48 48 49 50 49 47 45
24 25 25 26 27 28 29 29 30 29 29 30 30 30 31 31 31 32 33 34 35 35 35 36 37 37 38 39 39 40 40 40 41 43 45 45 45 44 44 44 44 44 44 44 43 43 42 42 41 40 40 40 40 40 39 39 39 38 38 39 39 38 38 38 38 39 39 39 40 40 40 39 38 37 36 36 37 37 38 38 40 41 42 42 43 42 43 43 42 42 43 44 46 47 47 47 47 46 46 47 48 47 44
24 25 26 26 26 27 28 29 29 29 29 29 30 30 30 31 31 31 32 33 34 35 35 35 36 37 37 38 39 39 40 40 40 41 45 46 46 45 45 44 44 43 42 41 40 40 39 39 39 39 38 38 39 39 38 38 38 38 38 38 38 38 37 37 38 38 38 38 39 40 40 40 40 39 37 37 36 36 36 36 36 37 37 36 36 37 37 37 37 37 37 37 37 39 42 42 41 41 42 42 43 43 41
25 25 26 26 26 27 27 28 28 28 29 29 29 30 30 30 31 31 31 33 34 35 35 35 36 36 37 37 38 38 39 39 40 40 43 44 44 44 44 43 42 41 40 39 39 38 38 38 38 38 39 39 38 38 38 38 39 39 38 38 38 37 36 37 37 37 37 37 38 38 39 40 40 40 39 38 38 37 37 37 36 36 36 36 35 35 36 36 36 36 36 36 36 35 36 36 35 35 36 37 38 38 37
25 26 26 26 26 26 27 27 28 28 28 28 29 29 29 30 30 30 31 32 33 35 35 35 36 36 36 37 37 37 38 38 39 39 41 42 43 42 42 41 40 40 40 39 39 38 37 38 38 39 40 40 39 39 39 39 39 39 38 38 38 37 36 36 36 36 36 36 36 37 38 39 39 40 39 39 38 38 37 37 37 36 36 36 35 35 35 36 37 37 37 37 37 37 36 36 35 35 35 35 35 35 35
25 26 26 26 26 26 26 27 27 27 27 28 28 28 29 29 29 29 30 31 32 34 35 35 35 35 36 36 36 36 37 38 38 38 39 40 42 42 42 41 40 40 40 39 39 38 38 38 39 39 39 40 40 40 40 39 39 39 38 38 38 38 37 36 35 35 35 35 35 35 37 38 38 39 39 39 38 38 37 37 37 37 37 36 35 35 35 35 36 37 36 37 37 37 37 36 36 36 35 35 34 34 34
25 26 26 26 26 26 26 26 26 27 27 27 27 28 28 28 28 28 29 30 31 33 34 34 35 35 35 35 35 36 36 37 37 37 38 39 40 41 41 41 40 40 40 39 39 39 38 38 39 39 39 39 39 39 39 38 38 38 38 38 37 37 36 35 33 32 33 33 33 33 35 36 37 38 38 38 38 37 37 37 37 37 37 36 35 35 35 35 35 35 35 35 35 35 36 36 36 36 36 35 34 34 33
25 25 26 26 26 26 26 26 26 26 26 26 27 27 27 28 28 28 28 29 30 31 33 34 34 33 33 34 34 35 35 36 36 36 36 37 38 39 39 40 40 40 40 40 39 39 39 39 39 39 39 39 38 38 38 37 37 36 37 37 37 37 36 34 31 28 29 29 29 30 31 33 35 37 37 37 37 36 36 36 36 36 36 36 35 35 35 35 35 34 34 34 34 34 35 35 35 35 36 35 35 34 33
25 25 25 25 25 25 25 25 26 26 26 26 26 27 27 27 27 28 28 28 29 30 32 32 32 32 32 33 33 34 34 35 35 35 35 35 36 36 37 37 38 38 38 38 39 39 39 38 38 38 38 38 37 37 37 36 36 35 36 36 36 36 35 32 28 26 26 26 26 26 27 29 31 33 34 34 34 34 33 34 34 35 35 35 35 35 35 35 35 35 35 34 34 34 34 34 34 35 35 35 35 34 33
25 25 25 25 25 25 25 25 25 26 26 26 26 27 27 28 28 28 28 28 29 29 30 31 31 30 31 32 32 33 33 34 34 34 34 35 35 35 35 35 35 36 36 36 37 38 38 38 37 37 36 36 36 37 36 36 35 35 35 35 35 35 33 30 26 24 24 24 25 25 25 26 27 28 29 30 30 31 31 31 32 33 32 32 33 33 34 35 35 35 35 35 34 34 34 34 34 34 34 34 34 33 32
25 25 25 25 25 25 25 25 25 25 26 26 26 26 27 28 28 28 28 29 29 29 29 29 29 29 30 31 32 32 32 33 33 33 33 34 34 35 34 34 34 34 34 35 35 35 36 36 36 36 35 35 35 36 36 35 35 35 35 35 34 34 30 26 24 23 23 23 24 24 24 25 26 26 26 27 28 28 29 29 30 31 31 30 30 31 31 32 33 34 34 35 34 34 34 34 34 34 34 34 33 32 31
25 25 25 25 24 24 24 24 24 25 25 26 26 26 27 27 28 28 29 29 29 29 29 28 28 28 29 30 31 31 31 32 32 32 33 33 33 34 34 34 34 34 34 34 34 34 34 33 33 34 33 33 33 33 34 34 35 35 35 34 34 32 28 25 23 22 22 22 23 23 23 23 24 24 25 26 26 27 28 28 28 29 28 28 28 28 28 29 30 31 31 32 33 33 33 34 34 34 34 34 33 31 31
25 25 25 25 24 24 24 24 24 25 25 25 26 26 27 27 28 29 29 29 29 29 29 28 28 28 28 28 29 30 31 31 32 32 32 32 32 33 33 33 34 34 33 33 33 33 33 31 31 30 30 30 30 30 30 31 31 32 33 34 33 30 26 23 22 22 22 22 22 22 22 23 23 23 24 25 26 27 28 28 28 28 27 27 27 27 27 27 27 27 28 29 30 30 31 32 33 33 33 33 33 32 31
25 25 25 24 24 24 23 24 24 24 25 25 26 26 26 27 28 28 29 29 29 29 29 28 28 27 27 27 27 28 30 31 31 32 32 31 32 32 32 33 33 33 33 33 33 33 32 31 28 27 26 26 27 27 27 27 27 28 30 31 30 27 24 23 22 22 22 22 22 22 22 22 23 23 23 24 25 26 27 27 27 27 27 27 27 27 27 27 26 26 26 26 26 27 28 29 30 31 31 31 31 31 30
24 25 25 25 24 23 23 23 24 24 24 25 25 26 26 26 27 27 28 29 29 28 28 28 28 27 27 26 26 26 29 30 31 31 31 31 31 31 31 32 32 33 33 32 32 32 31 30 28 26 24 23 23 24 24 24 24 24 25 25 25 24 23 22 21 21 21 22 22 22 22 22 23 23 23 24 24 25 26 26 26 27 27 27 27 27 27 28 27 26 25 25 25 26 26 27 27 28 29 29 29 29 28
24 25 26 25 24 23 23 23 24 24 24 25 25 26 26 26 26 27 27 28 28 28 28 28 27 27 26 26 25 25 26 27 29 31 31 31 31 31 31 31 32 32 32 32 31 30 27 25 25 24 22 22 21 22 22 22 22 22 22 22 22 22 22 21 21 21 21 22 22 22 22 22 23 24 24 24 24 24 25 25 26 26 26 27 27 26 26 27 27 26 25 25 25 25 26 26 26 27 27 27 27 27 27
24 25 25 25 24 23 24 24 24 24 25 25 25 25 26 26 26 26 26 27 27 27 27 27 27 26 26 25 24 23 21 22 26 30 30 30 31 31 31 31 31 31 31 28 26 25 23 22 21 21 20 20 20 21 21 21 21 21 21 22 22 22 22 21 21 22 22 22 22 22 23 23 23 23 24 24 24 24 24 25 26 26 26 27 27 27 27 27 27 26 25 25 25 25 25 26 26 28 27 27 26 26 26
26 26 26 25 25 25 25 25 25 25 25 25 25 26 25 26 26 26 26 26 26 26 26 26 26 26 25 25 23 22 19 18 20 24 26 28 29 31 31 31 31 31 28 25 22 22 21 20 20 20 20 20 20 20 20 21 21 21 21 21 22 22 22 22 22 22 22 22 23 23 23 23 24 23 23 24 24 24 24 25 25 26 26 26 26 27 26 26 26 26 26 26 25 25 26 26 27 28 28 27 27 26 27
26 26 26 26 26 26 26 26 26 26 26 26 26 26 26 26 26 26 26 26 26 26 26 26 26 26 25 24 23 21 19 17 15 17 19 22 24 26 27 29 29 29 25 22 21 21 21 20 20 20 21 21 21 20 20 21 21 21 21 21 21 22 22 22 22 22 22 23 23 23 23 23 24 24 23 24 24 24 24 25 25 26 26 26 26 26 25 25 26 26 26 26 26 26 26 26 27 29 28 27 27 27 27
26 26 26 26 26 26 26 26 26 26 26 26 26 26 26 26 26 26 26 26 26 26 26 25 25 24 24 22 21 20 18 16 13 13 14 15 16 17 21 24 25 24 22 21 21 22 22 21 21 21 21 21 21 21 21 21 21 21 21 21 21 21 22 22 22 22 23 23 23 23 23 23 23 24 24 24 24 24 25 25 25 25 26 26 26 26 26 26 26 26 26 26 26 26 26 26 26 28 28 27 26 26 26
26 26 26 26 26 26 26 26 26 26 27 27 26 26 26 26 26 26 25 25 25 25 24 24 24 22 21 20 18 17 16 14 13 13 13 13 14 14 16 17 20 21 21 22 21 21 20 20 20 20 20 20 20 21 21 21 21 21 21 21 21 21 22 22 22 22 23 24 24 23 23 23 23 23 24 24 24 24 25 25 25 25 25 25 26 26 26 26 26 26 26 26 25 26 25 25 25 25 25 25 26 26 26
26 26 26 26 26 26 27 27 27 27 27 27 27 27 27 27 26 26 26 25 24 23 23 22 22 20 18 16 14 13 12 12 13 13 13 13 13 13 14 15 17 19 21 21 21 20 20 19 19 20 20 20 21 21 21 21 21 21 21 21 21 21 22 22 22 23 22 23 24 24 23 23 23 24 24 24 24 25 25 25 25 25 25 25 25 26 26 26 26 26 26 26 25 24 24 24 24 24 25 25 25 25 25
26 26 26 26 26 26 27 27 27 27 27 27 27 28 27 27 27 26 25 25 24 23 22 22 22 20 18 16 14 12 11 12 12 13 13 13 13 14 14 14 15 17 18 20 21 21 20 20 20 19 19 20 20 21 21 21 21 21 21 21 22 22 22 22 23 24 22 22 23 24 23 23 23 24 24 24 24 24 25 25 25 25 25 25 25 25 26 26 26 26 26 25 24 23 24 24 24 24 24 24 25 25 25
26 26 26 26 26 26 27 27 27 27 28 28 28 27 27 26 26 25 24 23 22 21 21 21 20 18 17 16 14 13 12 12 12 14 13 13 13 14 14 14 14 16 17 18 20 21 21 20 20 20 20 20 21 21 20 20 21 21 20 21 21 22 22 23 24 24 23 23 23 24 23 23 24 24 24 24 24 24 25 25 25 25 25 25 25 25 25 26 26 26 26 25 24 24 24 25 24 24 24 24 24 24 24
26 26 26 26 26 26 26 26 26 27 28 28 28 27 26 26 25 23 22 21 19 18 17 17 17 16 15 14 13 13 13 13 13 13 13 13 14 14 14 14 14 15 16 16 17 18 20 20 20 20 20 21 21 21 20 20 21 21 21 21 22 22 23 24 25 25 25 24 24 24 24 24 24 24 24 24 24 24 24 25 25 25 25 24 24 24 25 25 25 25 25 25 25 25 24 24 24 24 24 24 24 24 24
26 26 26 26 26 26 26 26 27 27 27 27 26 26 26 25 23 22 20 18 17 16 16 15 15 14 14 14 14 13 13 13 13 14 14 13 13 14 14 15 15 15 15 16 16 17 18 19 20 20 20 20 20 20 20 20 20 22 22 22 22 23 24 25 25 26 25 25 25 25 25 25 25 25 24 24 24 25 24 24 24 24 24 24 24 24 24 25 25 25 25 25 24 24 24 24 24 24 23 24 24 24 23
26 27 27 27 27 27 27 27 26 26 26 26 25 25 24 23 22 21 20 18 16 15 14 14 14 14 14 14 14 14 14 14 14 14 14 14 14 14 15 16 17 15 16 16 17 18 19 19 20 20 19 19 19 20 20 20 20 21 22 22 23 23 24 25 26 26 25 25 25 25 25 25 25 25 25 24 24 24 24 24 24 24 24 24 24 24 24 24 24 24 24 24 24 24 24 24 23 23 23 23 23 23 23
27 27 27 27 27 27 26 26 26 26 25 24 23 22 22 21 21 21 19 17 16 14 13 13 13 13 13 13 13 14 14 14 14 14 14 14 15 15 15 16 16 16 16 17 17 19 19 20 20 20 19 19 19 19 19 19 20 21 22 22 22 23 24 24 25 26 25 25 25 25 25 25 25 25 24 24 24 24 24 24 24 24 24 23 23 23 23 24 24 24 25 24 24 23 23 23 23 23 23 23 23 23 24
27 27 27 27 26 26 26 25 25 24 23 22 21 20 19 19 20 20 20 18 17 15 14 13 13 13 13 13 13 14 14 15 15 15 15 15 15 15 15 15 15 15 16 16 17 18 19 19 19 20 19 19 19 19 19 20 20 21 21 21 22 22 23 24 24 25 25 25 25 25 24 24 24 24 24 23 23 23 23 24 24 24 23 23 23 23 23 23 24 25 25 24 24 24 24 23 24 24 24 24 24 25 26
27 27 27 26 26 26 25 24 23 22 21 20 18 17 17 18 19 20 20 19 18 16 15 14 13 13 13 13 13 14 15 15 15 15 16 16 16 16 16 16 16 16 16 16 17 17 18 19 20 20 20 20 19 19 19 20 20 20 21 21 22 22 22 23 24 25 25 25 24 24 24 24 23 23 23 23 23 23 23 23 23 23 23 23 23 23 23 23 23 24 25 25 24 24 23 23 24 25 25 25 25 25 25
27 27 26 26 25 24 22 22 21 20 18 17 16 15 15 16 17 20 22 22 20 18 16 15 14 14 13 13 14 14 15 16 16 16 16 16 16 16 16 16 16 16 16 16 16 17 17 18 19 20 20 20 19 19 19 19 20 21 21 22 22 22 22 22 23 24 25 25 24 24 24 24 23 23 23 23 23 22 22 22 22 22 23 23 22 22 22 22 22 23 24 24 24 23 23 22 22 22 22 22 23 23 23
27 26 26 24 23 22 21 20 19 17 17 16 15 14 14 14 16 18 23 25 25 21 18 16 15 15 14 14 14 15 15 16 16 17 17 17 17 17 17 17 17 17 16 16 16 17 17 17 18 19 19 19 19 19 19 19 20 21 22 22 22 22 22 22 23 24 25 24 24 24 24 24 23 23 23 23 22 22 22 22 22 22 22 22 22 22 22 22 22 22 22 23 22 22 22 21 21 21 21 21 22 22 22
26 26 24 23 22 20 19 18 17 16 16 15 14 14 14 14 14 15 20 25 28 25 20 17 16 15 15 15 15 15 16 16 17 17 17 17 17 17 17 17 17 17 17 16 16 17 17 17 17 18 19 19 19 19 19 19 19 20 22 22 23 22 22 23 23 23 24 24 24 24 23 23 23 23 23 22 22 22 22 22 22 22 22 22 22 22 22 22 22 22 22 21 21 21 21 21 20 20 20 20 20 21 21
26 24 23 21 20 18 17 16 14 14 14 15 14 15 15 15 15 15 16 20 24 27 22 19 17 16 16 15 15 16 16 17 17 17 17 17 17 17 17 17 17 17 17 16 16 16 17 17 17 18 18 19 19 19 19 19 19 19 21 22 23 23 23 23 23 23 23 24 24 24 23 23 23 24 24 23 22 22 22 22 22 21 21 21 21 21 21 22 22 21 21 21 20 20 20 20 20 20 19 20 20 20 20
25 23 21 20 18 17 15 13 13 13 14 15 15 16 16 16 16 16 16 17 18 22 22 22 19 17 16 16 16 16 17 17 17 17 17 17 17 17 17 17 17 17 17 16 16 16 17 17 17 18 18 19 19 19 19 19 20 20 21 22 23 23 23 23 23 23 23 23 24 24 24 23 24 26 26 25 23 22 22 22 22 21 21 21 21 21 21 21 21 21 21 21 20 20 19 19 19 19 19 19 19 19 19
24 22 20 19 17 14 13 13 13 13 14 15 16 17 17 16 16 16 16 17 17 17 19 21 20 18 17 16 16 16 17 18 17 17 17 18 18 18 17 17 17 16 16 16 17 17 17 17 17 17 18 18 18 19 19 20 20 21 21 22 22 23 23 23 22 22 23 23 24 23 24 24 24 26 26 26 24 23 23 23 22 22 21 21 21 20 20 21 21 21 20 20 20 19 19 18 18 18 18 18 19 19 19
24 22 20 17 15 13 13 13 13 13 14 15 16 17 17 16 15 15 16 17 17 17 17 18 19 19 17 16 16 16 17 18 18 17 18 18 18 18 18 17 17 17 17 17 17 17 17 17 17 18 18 18 18 19 19 19 20 20 20 20 21 22 22 22 22 22 22 23 23 23 24 25 26 26 26 26 25 25 25 25 24 22 21 21 20 20 20 20 20 20 20 19 19 19 18 18 18 18 19 19 20 20 20
23 22 19 16 14 13 13 13 14 14 14 15 16 17 17 17 16 15 16 17 17 17 17 17 18 19 18 17 16 17 17 18 18 18 17 18 18 18 18 17 17 17 17 17 17 17 17 17 18 18 18 18 18 18 19 19 19 19 19 19 19 20 21 22 22 22 22 22 23 23 23 25 26 25 26 26 25 24 25 25 24 22 21 20 20 20 20 20 20 20 19 19 19 19 19 19 19 19 20 20 20 21 21
23 21 19 16 14 13 13 14 15 15 15 16 16 17 18 17 17 16 17 17 18 18 17 17 17 18 18 17 17 17 18 18 18 18 18 18 18 18 18 18 18 18 17 17 17 17 17 17 18 18 18 18 18 18 18 18 18 18 18 18 19 20 21 22 22 22 22 22 22 22 23 24 25 25 26 26 25 23 25 24 23 21 20 20 20 20 20 21 21 21 20 19 19 19 19 19 18 18 19 19 19 19 19
22 21 19 17 15 14 14 15 15 17 17 17 18 18 20 20 19 19 19 19 18 17 17 17 17 18 18 17 17 17 18 19 19 19 18 18 18 18 18 18 18 18 17 17 18 17 18 18 18 18 19 19 18 18 18 18 18 18 18 19 20 21 21 21 21 22 22 22 22 22 22 22 23 25 26 26 25 23 24 23 22 21 21 22 22 23 22 22 22 21 19 19 18 18 18 17 17 17 17 18 18 19 19
22 21 19 17 16 16 16 16 16 17 18 19 20 21 22 23 23 23 22 21 20 18 17 18 18 18 18 18 18 18 19 20 20 20 19 19 18 18 18 18 18 18 18 17 17 18 18 18 18 19 19 19 18 18 18 18 18 18 18 19 20 21 21 21 21 22 22 22 22 22 23 23 23 25 26 26 26 25 25 25 24 23 23 23 23 22 22 21 20 19 18 18 17 17 18 17 17 17 17 18 19 19 19
21 20 19 17 16 16 17 17 17 17 17 18 19 21 23 26 28 27 26 24 22 20 19 19 19 20 19 19 19 19 20 21 21 21 20 19 19 18 18 18 18 18 18 18 18 18 18 18 18 19 19 19 18 18 18 18 18 19 19 20 20 21 21 21 21 22 22 22 22 22 23 24 24 25 26 26 26 26 26 26 25 24 23 22 21 20 20 20 20 18 18 18 18 19 19 19 18 18 19 19 20 19 19
20 20 19 17 16 15 16 17 18 18 18 18 19 20 22 26 29 29 27 25 22 20 20 20 20 20 20 20 20 20 21 22 22 21 21 20 19 18 18 19 19 18 18 18 18 19 19 19 19 19 19 19 18 18 18 18 19 19 20 20 21 21 21 21 22 22 23 22 22 22 22 23 23 24 25 26 26 26 26 25 25 23 22 20 19 19 21 21 20 19 19 19 19 20 20 19 19 19 19 19 19 18 18
20 20 19 17 16 15 15 16 17 17 17 18 18 19 21 24 27 26 23 21 20 20 21 20 20 20 21 20 20 21 21 21 21 21 21 20 19 19 19 19 19 18 18 18 18 19 19 19 19 19 19 19 19 19 19 19 19 20 20 21 21 21 21 22 22 23 23 24 24 22 22 22 22 22 23 25 26 26 25 24 23 22 21 19 19 20 21 21 20 20 20 19 19 20 20 19 19 18 18 17 17 17 16
20 20 19 17 16 15 15 15 17 18 18 19 18 18 18 20 22 22 20 20 21 23 22 22 21 21 21 21 21 21 21 21 21 21 20 20 19 18 18 18 18 18 18 18 19 19 19 19 19 19 19 19 19 19 19 19 19 20 20 21 21 21 22 22 22 23 23 24 24 22 22 22 22 21 22 23 25 25 25 23 21 20 20 19 19 20 20 20 20 20 20 19 19 19 19 19 18 17 17 16 16 15 15
20 20 19 17 17 15 15 16 17 19 20 19 19 18 17 17 17 18 20 22 24 26 24 23 22 21 21 22 22 21 21 21 20 21 20 20 19 18 17 17 17 18 18 19 19 19 19 19 19 20 20 20 19 19 19 19 20 20 21 21 21 22 22 22 22 22 22 21 20 20 21 21 22 21 22 23 24 25 23 22 20 18 19 19 19 19 20 20 19 19 19 19 19 18 18 17 17 17 17 16 16 15 15
20 19 18 17 16 15 15 16 18 19 20 20 19 19 18 18 18 20 22 25 26 25 24 23 22 22 22 22 22 21 21 20 20 21 21 20 19 18 17 17 17 17 18 18 19 19 19 19 20 21 20 20 20 20 20 21 21 21 21 21 22 22 22 21 20 19 20 20 19 19 20 20 21 22 23 23 23 23 22 20 18 17 17 17 18 19 19 19 19 19 19 19 19 18 18 18 18 18 17 17 16 15 15
20 19 18 17 16 14 14 15 17 19 19 20 20 20 20 20 21 23 26 26 25 24 25 24 23 22 23 22 22 21 21 21 21 21 21 20 19 18 17 17 17 17 17 18 19 19 19 19 20 20 20 20 20 21 21 21 21 21 21 21 22 22 21 20 18 18 18 19 19 19 19 19 20 21 22 22 22 22 21 19 18 16 17 17 18 19 19 19 19 19 19 19 19 19 18 18 18 18 17 17 16 15 15
20 20 19 18 17 16 16 17 19 20 20 20 20 20 21 22 22 23 23 23 22 23 24 24 23 23 22 22 22 21 21 21 21 22 22 21 19 18 17 17 16 17 17 18 19 19 19 19 20 20 20 20 20 20 21 21 21 21 21 21 21 21 19 18 18 17 18 18 18 17 17 18 19 20 21 20 20 20 20 18 16 15 17 17 18 18 19 19 19 19 19 19 19 19 18 18 18 18 17 16 16 16 17
20 19 18 18 18 19 20 20 21 21 21 20 20 19 20 22 22 23 24 23 22 22 23 24 24 23 22 22 22 22 22 22 22 22 22 22 20 18 17 17 16 17 17 18 18 18 19 19 20 20 20 20 20 20 21 21 21 21 21 21 20 19 18 17 17 16 17 17 17 16 17 17 18 20 20 20 19 19 18 17 16 16 17 17 18 18 18 19 19 19 19 19 19 19 19 19 18 17 17 17 17 17 18
20 19 19 18 19 21 23 24 25 24 23 22 21 20 21 22 22 23 23 23 22 22 24 24 24 23 23 22 22 23 23 22 22 22 22 21 20 18 17 17 16 16 17 17 18 18 18 19 19 20 20 20 20 20 21 21 21 22 21 21 21 19 18 17 16 16 18 18 17 16 17 18 19 21 21 20 19 18 17 16 15 16 17 18 18 18 18 18 18 19 19 19 19 19 19 19 18 17 17 17 17 17 19
24 25 25 23 22 23 25 26 26 25 24 22 22 22 22 23 22 22 21 21 22 23 24 24 23 22 22 23 23 23 23 22 22 21 21 21 20 18 17 17 16 16 16 17 17 17 18 18 19 20 20 20 20 20 20 21 21 22 22 21 20 18 17 17 17 17 17 17 17 17 18 19 20 22 21 20 19 17 16 16 15 16 19 20 19 18 18 18 19 19 19 19 19 19 19 17 16 15 16 16 16 17 17